N3WR Weather Reports


time (UTC)temp
C
wind
direction
speed
KPH
gust
KPH
rain 1hr
cm
rain 24hr
cm
rain mn
cm
humidity
%
barometer
mb
20260506221458 17 250 6.4 12.9 0.00 0.71 0.71 90 1006.7
20260506220002 17 231 8.0 17.7 0.00 0.71 0.71 89 1006.5
20260506214458 17 264 9.7 19.3 0.00 0.71 0.71 89 1006.5
20260506212958 17 173 8.0 16.1 0.00 0.71 0.71 89 1006.2
20260506211457 18 244 9.7 20.9 0.00 0.71 0.71 88 1006.0
20260506210002 17 215 8.0 16.1 0.00 0.71 0.71 91 1006.1
20260506204458 17 232 9.7 19.3 0.00 0.71 0.71 91 1006.1
20260506202958 16 246 8.0 17.7 0.00 0.71 0.71 92 1006.1
20260506201457 16 239 9.7 19.3 0.00 0.71 0.71 92 1006.2
20260506200001 16 241 8.0 16.1 0.00 0.71 0.71 92 1006.1
20260506194500 16 206 8.0 14.5 0.00 0.71 0.71 92 1006.1
20260506193000 16 248 9.7 20.9 0.03 0.71 0.71 93 1006.3
20260506191458 16 186 9.7 17.7 0.03 0.71 0.71 93 1006.3
20260506185959 16 214 11.3 20.9 0.03 0.71 0.71 93 1006.6
20260506184458 15 207 11.3 16.1 0.05 0.71 0.71 93 1006.7
20260506182958 15 199 11.3 20.9 0.05 0.69 0.69 93 1006.9
20260506181459 15 175 8.0 17.7 0.10 0.69 0.69 93 1007.0
20260506175959 15 200 8.0 16.1 0.13 0.69 0.69 93 1007.0
20260506174457 15 213 11.3 20.9 0.15 0.66 0.66 92 1007.1
20260506172958 15 185 9.7 19.3 0.20 0.64 0.64 92 1007.0
20260506171458 15 167 11.3 25.7 0.15 0.58 0.58 92 1007.1
20260506170003 15 180 12.9 20.9 0.15 0.56 0.56 92 1007.2
20260506164459 15 200 11.3 17.7 0.13 0.51 0.51 92 1007.3
20260506162958 15 188 6.4 14.5 0.10 0.43 0.43 92 1007.4
20260506161458 15 211 9.7 16.1 0.20 0.43 0.43 92 1007.4
20260506160004 15 223 11.3 20.9 0.20 0.41 0.41 92 1007.3
20260506154457 15 180 12.9 24.1 0.20 0.38 0.38 91 1007.3
20260506152957 15 216 11.3 22.5 0.18 0.33 0.33 92 1007.7
20260506151457 15 180 11.3 17.7 0.13 0.23 0.23 91 1008.2
20260506150005 16 192 9.7 16.1 0.15 0.20 0.20 91 1008.0
20260506144457 16 171 8.0 17.7 0.13 0.18 0.18 91 1007.6
20260506142957 16 201 6.4 11.3 0.13 0.15 0.15 90 1007.6
20260506141458 16 202 8.0 16.1 0.10 0.10 0.10 90 1008.1
20260506140003 16 164 8.0 16.1 0.05 0.05 0.05 90 1008.0
20260506134459 16 178 6.4 11.3 0.05 0.05 0.05 90 1007.7
20260506132957 16 199 6.4 12.9 0.03 0.03 0.03 89 1008.2
20260506131457 16 213 9.7 19.3 0.00 0.00 0.00 88 1008.2
20260506125958 16 174 9.7 17.7 0.00 0.00 0.00 87 1008.3
20260506124457 16 207 12.9 22.5 0.00 0.00 0.00 85 1008.3
20260506122959 17 255 11.3 16.1 0.00 0.00 0.00 84 1008.3
20260506121457 17 228 12.9 24.1 0.00 0.00 0.00 82 1007.9
20260506115958 17 173 11.3 22.5 0.00 0.00 0.00 80 1007.8
20260506114457 17 184 14.5 27.4 0.00 0.00 0.00 79 1007.8
20260506112957 17 184 12.9 24.1 0.00 0.00 0.00 79 1007.8
20260506111456 17 204 11.3 24.1 0.00 0.00 0.00 79 1007.7
20260506110001 17 178 11.3 17.7 0.00 0.00 0.00 79 1007.5
20260506104457 17 192 6.4 11.3 0.00 0.00 0.00 78 1007.5
20260506102957 17 191 6.4 11.3 0.00 0.00 0.00 78 1007.4
20260506101457 17 169 8.0 11.3 0.00 0.00 0.00 77 1007.3
20260506095958 17 174 6.4 12.9 0.00 0.00 0.00 77 1007.3
20260506094457 17 176 6.4 11.3 0.00 0.00 0.00 76 1007.4
20260506092958 17 248 6.4 9.7 0.00 0.00 0.00 75 1007.4
20260506091500 17 185 4.8 11.3 0.00 0.00 0.00 74 1007.4
20260506090001 17 193 4.8 11.3 0.00 0.00 0.00 73 1007.5
20260506084459 17 182 3.2 6.4 0.00 0.05 0.00 72 1007.6
20260506082958 18 207 3.2 6.4 0.00 0.05 0.00 70 1007.6
20260506081459 18 160 4.8 9.7 0.00 0.05 0.00 69 1007.5
20260506072957 18 172 6.4 11.3 0.00 0.05 0.00 68 1007.7
20260506071457 18 197 4.8 11.3 0.00 0.05 0.00 67 1007.8
20260506061457 18 255 3.2 8.0 0.00 0.05 0.00 65 1008.3
20260506044458 18 254 3.2 6.4 0.00 0.05 0.00 61 1008.8
20260506042959 18 215 3.2 6.4 0.00 0.05 0.00 61 1008.8
20260506041459 18 207 1.6 4.8 0.00 0.05 0.00 60 1008.9
20260506040004 19 213 3.2 6.4 0.00 0.05 0.00 60 1009.0
20260506034458 19 204 3.2 6.4 0.00 0.05 0.05 59 1008.8
20260506032958 19 213 4.8 9.7 0.00 0.05 0.05 59 1008.8
20260506031501 20 211 6.4 12.9 0.00 0.05 0.05 58 1008.8
20260506030001 20 185 6.4 11.3 0.00 0.05 0.05 57 1008.8
20260506024501 20 219 6.4 14.5 0.00 0.05 0.05 57 1008.8
20260506023003 21 180 11.3 19.3 0.00 0.05 0.05 55 1008.8
20260506021459 21 196 11.3 19.3 0.00 0.05 0.05 55 1008.9
20260506020002 21 164 9.7 17.7 0.00 0.05 0.05 54 1008.9
20260506014459 21 182 9.7 16.1 0.00 0.05 0.05 53 1008.6
20260506013001 22 175 9.7 24.1 0.00 0.05 0.05 50 1008.5
20260506011458 22 165 8.0 12.9 0.00 0.05 0.05 49 1008.2
20260506010004 22 195 9.7 14.5 0.00 0.05 0.05 49 1007.9
20260506004459 22 211 12.9 19.3 0.00 0.05 0.05 48 1007.7
20260506002959 22 171 11.3 19.3 0.00 0.05 0.05 49 1007.8
20260506001503 23 194 11.3 27.4 0.00 0.05 0.05 49 1007.6
20260506000004 23 201 11.3 20.9 0.00 0.05 0.05 48 1007.5
20260505234459 23 188 11.3 17.7 0.00 0.05 0.05 46 1007.4
20260505232959 23 196 12.9 22.5 0.00 0.05 0.05 45 1007.2
20260505231458 24 196 12.9 27.4 0.00 0.05 0.05 45 1007.3
20260505230004 24 182 14.5 29.0 0.00 0.05 0.05 44 1007.1
20260505224458 25 197 14.5 29.0 0.00 0.05 0.05 44 1007.1
20260505222958 25 172 12.9 30.6 0.00 0.05 0.05 44 1006.9